Skip Page Navigation
NASA JPL Caltech
NASA Logo - Jet Propulsion Laboratory + View the NASA Portal
+ Near-Earth Object (NEO) Program
Search JPL
JPL Home Earth Solar System Stars & Galaxies Technology
JPL Solar System Dynamics
BODIES ORBITS EPHEMERIDES TOOLS PHYSICAL DATA DISCOVERY FAQ SITE MAP
JPL Small-Body Database Browser
Search: [ help ]  
16582 (1992 JS3)
Classification: Main-belt Asteroid          SPK-ID: 2016582
Ephemeris | Orbit Diagram | Orbital Elements | Physical Parameters | Discovery Circumstances | Close-Approach Data ]

[ show orbit diagram ]
Orbital Elements at Epoch 2457000.5 (2014-Dec-09.0) TDB
Reference: JPL 16 (heliocentric ecliptic J2000)
 Element Value Uncertainty (1-sigma)   Units 
e .1331231635731838 9.2891e-08  
a 2.392996652322644 1.5023e-08 AU
q 2.074433367545415 2.2463e-07 AU
i 6.928710150629322 8.4138e-06 deg
node 40.57931575001316 4.2544e-05 deg
peri 162.5429023739769 4.6932e-05 deg
M 58.68648592061039 1.7864e-05 deg
tp 2456780.081943917862
(2014-May-02.58194392)
6.7113e-05 JED
period 1352.108563748613
3.70
1.2733e-05
3.486e-08
d
yr
n .2662508097736832 2.5073e-09 deg/d
Q 2.711559937099873 1.7023e-08 AU
  Orbit Determination Parameters
   # obs. used (total)      973  
   data-arc span      10431 days (28.56 yr)  
   first obs. used      1986-11-07  
   last obs. used      2015-05-30  
   planetary ephem.      DE431  
   SB-pert. ephem.      SB431-BIG16  
   condition code      0  
   fit RMS      .52105  
   data source      ORB  
   producer      Otto Matic  
   solution date      2015-Jul-06 12:18:57  

Additional Information
 Earth MOID = 1.07303 AU 
 T_jup = 3.509 
[ show covariance matrix ]

Ephemeris | Orbit Diagram | Orbital Elements | Physical Parameters | Discovery Circumstances | Close-Approach Data ]

Physical Parameter Table
Parameter Symbol Value Units Sigma Reference Notes
absolute magnitude H 14.1 mag n/a MPO302167  

16582 (1992 JS3)          Discovered 1992-May-11 by Debehogne, H. at La Silla
Reference: 20000913/Numbers.arcLast Updated: 2004-04-19

[ show close-approach data ]
Alternate Designations
 1992 JS3 = 1986 VR9 = 1999 CZ52 = 1999 LL1 
Ephemeris | Orbit Diagram | Orbital Elements | Physical Parameters | Discovery Circumstances | Close-Approach Data ]
ABOUT SSD CREDITS/AWARDS PRIVACY/COPYRIGHT GLOSSARY LINKS
FirstGov 2015-Aug-03 13:09 UT
(server date/time)  
NASA Home Page
Site Manager:   Ryan S. Park
Webmaster  Alan B. Chamberlin